This is the latest recevied weather packets stored in our database for station/object SR9WXY. If no packets are shown the sender has not sent any weather packets the latest 1 day(s).
| Time | Temp. | Humidity | Pressure | Rain* | Wind** | Luminosity | Snow |
|---|---|---|---|---|---|---|---|
| 1778098001 | 11.11° C | 67% | 874.9 hPa | - | - | - | - |
| 1778097701 | 11.11° C | 67% | 874.9 hPa | - | - | - | - |
| 1778097401 | 11.11° C | 67% | 875 hPa | - | - | - | - |
| 1778094687 | 11.11° C | 66% | 875.1 hPa | - | - | - | - |
| 1778091688 | 11.67° C | 65% | 875.4 hPa | - | - | - | - |
| 1778091388 | 11.67° C | 65% | 875.4 hPa | - | - | - | - |
| 1778089586 | 11.67° C | 64% | 875.7 hPa | - | - | - | - |
| 1778088384 | 12.22° C | 63% | 875.8 hPa | - | - | - | - |
| 1778088084 | 12.22° C | 63% | 875.8 hPa | - | - | - | - |
| 1778087784 | 12.22° C | 63% | 875.9 hPa | - | - | - | - |
| 1778087484 | 12.22° C | 63% | 875.9 hPa | - | - | - | - |
| 1778087184 | 12.22° C | 63% | 875.9 hPa | - | - | - | - |
| 1778086875 | 12.22° C | 62% | 875.9 hPa | - | - | - | - |
| 1778086574 | 12.78° C | 62% | 876 hPa | - | - | - | - |
| 1778083572 | 13.89° C | 61% | 876 hPa | - | - | - | - |
| 1778083272 | 14.44° C | 61% | 876 hPa | - | - | - | - |
| 1778082972 | 14.44° C | 61% | 876 hPa | - | - | - | - |
| 1778082672 | 14.44° C | 61% | 876.1 hPa | - | - | - | - |
| 1778082070 | 14.44° C | 61% | 876.1 hPa | - | - | - | - |
| 1778081170 | 13.89° C | 61% | 876.3 hPa | - | - | - | - |
| 1778080570 | 13.89° C | 60% | 876.4 hPa | - | - | - | - |
| 1778080270 | 13.89° C | 60% | 876.3 hPa | - | - | - | - |
| 1778079970 | 13.89° C | 60% | 876.4 hPa | - | - | - | - |
| 1778077861 | 15.56° C | 59% | 876.4 hPa | - | - | - | - |
| 1778074858 | 15.56° C | 59% | 876.5 hPa | - | - | - | - |
* Rain since midnight (hover to see other rain measurements)
** Current wind speed in m/s (hover to see current wind gust speed)